リード彗星

238P/Read (2011)

English version
Home page
Updated on October 31, 2010

---------------------------------------------------------------------

・ プロフィール

符号 238P/2010 N2
検出日 2010年7月7日
検出光度 23.6等
検出者 J. Pittichova (University of Hawaii, Mauna Kea)

・ 軌道要素

Epoch 2011 Mar. 20.0 TT = JDT 2455640.5
T 2011 Mar. 10.67735 TT                                 MPC
q   2.3604259            (2000.0)            P               Q
n   0.17500980     Peri.  325.30765     +0.95646657     -0.29132724
a   3.1653943      Node    51.63920     +0.27251323     +0.87030042
e   0.2543027      Incl.    1.26601     +0.10444252     +0.39712166
P   5.63

・ 光度変化

        m1 = 17.5 + 5 logΔ + 10.0 log r

        ※ 灰色の曲線は、m1 = 14.5 + 5 logΔ + 10.0 log r の光度曲線です。

---------------------------------------------------------------------

軌道要素はM.P.E.C. 2010-O44に掲載されたものです。
光度グラフはComet for Windowsで作成したものです。

---------------------------------------------------------------------

Copyright(C) Seiichi Yoshida (comet@aerith.net). All rights reserved.